Location: Krasnoyarskiy Pitomnik
(51.1333°N, 71.6167°E)
Time: 06:31:33
(UTC+00:00)

Transit 4A - Pass Details

Date: 15 April 2024
Orbit: 871 x 971 km, 66.8° (Epoch: 28 May)

Event Time Altitude Azimuth Distance (km) Brightness Sun altitude
Rises 18:06:29 0° 319° (NW) 3,472 11.9 -27.0°
Reaches altitude 10° 18:09:03 10° 314° (NW) 2,529 10.9 -27.2°
Enters shadow 18:14:30 46° 245° (WSW) 1,159 8.3 -27.4°
